Prestwick, United Kingdom

8:31 PM BST on August 17, 2017 (GMT +0100)
Prestwick

Weather History for EGPK - December, 2012

Change the Weather History Date:

Sunday, December 9, 2012

  Actual Average Record
Temperature  
Mean Temperature 39 °F -  
Max Temperature 48 °F 44 °F 55 °F (2016)
Min Temperature 30 °F 34 °F 24 °F (2010)
Degree Days  
Heating Degree Days 26    
Moisture  
Dew Point 36 °F    
Average Humidity 79    
Maximum Humidity 93    
Minimum Humidity 66    
Precipitation  
Precipitation 0.00 in - - ()
Sea Level Pressure  
Sea Level Pressure 30.04 in    
Wind  
Wind Speed 16 mph ()    
Max Wind Speed 32 mph    
Max Gust Speed 37 mph    
Visibility 5.8 miles    
Events Rain    
Averages and records for this station are not official NWS values.
T = Trace of Precipitation, MM = Missing Value Source: Averaged Metar Reports

Daily Weather History Graph

Daily Weather History Graph

Search for Another Location

Airport or City:

Trip Planner

Search our weather history database for the weather conditions in past years. The results will help you decide how hot, cold, wet, or windy it might be!

Date:

Astronomy

Dec. 09, 2012 Rise Set
Actual Time 8:34 AM GMT 3:47 PM GMT
Civil Twilight 7:48 AM GMT 4:33 PM GMT
Nautical Twilight 7:00 AM GMT 5:21 PM GMT
Astronomical Twilight 6:15 AM GMT 6:05 PM GMT
Moon 3:13 AM GMT (12/9) 1:18 PM GMT (12/9)
Length of Visible Light 8h 44m
Length of Day
7h 13m
Waning Crescent, 20% of the Moon is Illuminated
Dec 9
Waning Crescent
Dec 13
New
Dec 20
First Quarter
Dec 28
Full
Jan 5
Last Quarter

Hourly Weather History & Observations

Time (GMT) Temp. Windchill Dew Point Humidity Pressure Visibility Wind Dir Wind Speed Gust Speed Precip Events Conditions
12:20 AM 48.2 °F - 44.6 °F 87% 30.04 in 3.7 mi West 23.0 mph - N/A Rain Light Rain
12:50 AM 48.2 °F - 44.6 °F 87% 30.04 in 5.6 mi WSW 18.4 mph 31.1 mph N/A   Mostly Cloudy
1:50 AM 48.2 °F - 44.6 °F 87% 30.01 in 5.6 mi West 20.7 mph 32.2 mph N/A Rain Light Rain Showers
2:50 AM 48.2 °F - 44.6 °F 87% 30.01 in 5.0 mi West 21.9 mph - N/A Rain Light Rain Showers
3:50 AM 46.4 °F 38.7 °F 42.8 °F 87% 29.98 in 5.6 mi WNW 20.7 mph - N/A Rain Light Rain Showers
4:50 AM 46.4 °F 39.5 °F 39.2 °F 76% 30.01 in 6.2 mi WNW 17.3 mph - N/A   Scattered Clouds
5:50 AM 46.4 °F 40.1 °F 37.4 °F 71% 30.01 in 6.2 mi West 15.0 mph - N/A   Scattered Clouds
6:20 AM 46.4 °F 38.7 °F 37.4 °F 71% 30.01 in 6.2 mi WNW 20.7 mph - N/A   Mostly Cloudy
6:50 AM 46.4 °F 39.0 °F 37.4 °F 71% 29.98 in 6.2 mi WNW 19.6 mph - N/A   Mostly Cloudy
7:20 AM 44.6 °F 37.4 °F 39.2 °F 81% 30.01 in 5.6 mi NW 16.1 mph - N/A Rain Light Rain Showers
7:50 AM 44.6 °F 36.1 °F 37.4 °F 76% 29.98 in 5.6 mi WNW 21.9 mph - N/A Rain Light Rain
8:20 AM 44.6 °F 36.1 °F 35.6 °F 71% 29.98 in 5.6 mi WNW 21.9 mph - N/A Rain Light Rain
8:50 AM 44.6 °F 35.9 °F 37.4 °F 76% 29.98 in 5.6 mi WNW 23.0 mph - N/A   Scattered Clouds
9:20 AM 46.4 °F 37.7 °F 37.4 °F 71% 29.98 in 5.6 mi WNW 26.5 mph - N/A   Partly Cloudy
9:50 AM 46.4 °F 37.5 °F 37.4 °F 71% 29.98 in 5.6 mi WNW 27.6 mph - N/A   Partly Cloudy
10:20 AM 44.6 °F 34.9 °F 39.2 °F 81% 29.98 in 5.6 mi WNW 28.8 mph - N/A   Partly Cloudy
10:50 AM 46.4 °F 37.0 °F 39.2 °F 76% 29.98 in 5.6 mi WNW 31.1 mph - N/A   Partly Cloudy
11:20 AM 46.4 °F 36.9 °F 39.2 °F 76% 29.95 in 5.6 mi WNW 32.2 mph - N/A   Partly Cloudy
11:50 AM 46.4 °F 37.0 °F 37.4 °F 71% 29.98 in 6.2 mi WNW 31.1 mph - N/A   Partly Cloudy
12:20 PM 46.4 °F 38.1 °F 37.4 °F 71% 29.98 in 6.2 mi NW 24.2 mph 36.8 mph N/A   Partly Cloudy
12:50 PM 46.4 °F 38.5 °F 39.2 °F 76% 29.98 in 6.2 mi NW 21.9 mph - N/A   Partly Cloudy
1:20 PM 46.4 °F 38.1 °F 37.4 °F 71% 29.98 in 6.2 mi NW 24.2 mph - N/A   Partly Cloudy
1:50 PM 46.4 °F 39.5 °F 35.6 °F 66% 30.01 in 6.2 mi NW 17.3 mph - N/A   Scattered Clouds
2:20 PM 44.6 °F 38.1 °F 35.6 °F 71% 30.01 in 6.2 mi NW 13.8 mph - N/A   Scattered Clouds
2:50 PM 44.6 °F 38.4 °F 35.6 °F 71% 30.04 in 6.2 mi NW 12.7 mph - N/A   Scattered Clouds
3:20 PM 44.6 °F 40.2 °F 35.6 °F 71% 30.04 in 6.2 mi NW 8.1 mph - N/A   Partly Cloudy
3:50 PM 42.8 °F 37.0 °F 35.6 °F 76% 30.04 in 6.2 mi NNW 10.4 mph - N/A   Partly Cloudy
4:20 PM 42.8 °F 35.8 °F 35.6 °F 76% 30.04 in 6.2 mi WNW 13.8 mph - N/A   Partly Cloudy
4:50 PM 42.8 °F 35.4 °F 35.6 °F 76% 30.04 in 6.2 mi NW 15.0 mph - N/A   Partly Cloudy
5:20 PM 42.8 °F 36.2 °F 35.6 °F 76% 30.06 in 6.2 mi NW 12.7 mph - N/A   Partly Cloudy
5:50 PM 42.8 °F 35.4 °F 35.6 °F 76% 30.06 in - NW 15.0 mph - N/A   Clear
6:20 PM 41.0 °F 35.2 °F 35.6 °F 81% 30.06 in - NW 9.2 mph - N/A   Clear
6:50 PM 41.0 °F 34.7 °F 35.6 °F 81% 30.09 in - NW 10.4 mph - N/A   Clear
7:20 PM 39.2 °F 35.0 °F 33.8 °F 81% 30.09 in - NNW 5.8 mph - N/A   Clear
7:50 PM 37.4 °F 33.8 °F 33.8 °F 87% 30.09 in - NNW 4.6 mph - N/A   Clear
8:20 PM 35.6 °F 32.8 °F 32.0 °F 87% 30.12 in - North 3.5 mph - N/A   Clear
8:50 PM 35.6 °F - 32.0 °F 87% 30.12 in - NW 2.3 mph - N/A   Clear
9:20 PM 33.8 °F - 32.0 °F 93% 30.12 in - Calm Calm - N/A   Clear
9:50 PM 32.0 °F - 30.2 °F 93% 30.15 in - Calm Calm - N/A   Clear
10:20 PM 32.0 °F - 30.2 °F 93% 30.15 in - Calm Calm - N/A   Clear
10:50 PM 32.0 °F - 30.2 °F 93% 30.18 in - Calm Calm - N/A   Clear
11:20 PM 30.2 °F - 28.4 °F 93% 30.18 in - Calm Calm - N/A   Clear
11:50 PM 30.2 °F 26.7 °F 28.4 °F 93% 30.18 in - NNE 3.5 mph - N/A   Clear